TimeEDT,TemperatureF,Dew PointF,Humidity,Sea Level PressureIn,VisibilityMPH,Wind Direction,Wind SpeedMPH,Gust SpeedMPH,PrecipitationIn,Events,Conditions,WindDirDegrees,DateUTC
12:58 AM,53.1,43.2,69,30.04,10.0,Calm,Calm,-,N/A,,Clear,0,2013-04-14 04:58:00
1:58 AM,51.3,43.9,76,30.02,10.0,Calm,Calm,-,N/A,,Clear,0,2013-04-14 05:58:00
2:58 AM,51.1,44.4,78,30.00,10.0,Calm,Calm,-,N/A,,Clear,0,2013-04-14 06:58:00
3:58 AM,50.0,45.7,85,29.99,10.0,North,2.3,-,N/A,,Clear,360,2013-04-14 07:58:00
4:58 AM,49.6,44.8,83,29.98,10.0,Calm,Calm,-,N/A,,Clear,0,2013-04-14 08:58:00
5:58 AM,48.4,43.5,83,29.99,10.0,Calm,Calm,-,N/A,,Clear,0,2013-04-14 09:58:00
6:58 AM,48.7,43.7,83,30.01,10.0,East,2.3,-,N/A,,Mostly Cloudy,80,2013-04-14 10:58:00
7:58 AM,52.5,41.4,66,30.01,10.0,ENE,3.5,-,N/A,,Overcast,70,2013-04-14 11:58:00
8:58 AM,55.2,43.7,65,30.03,10.0,East,3.5,-,N/A,,Overcast,80,2013-04-14 12:58:00
9:58 AM,56.7,43.9,62,30.06,10.0,East,8.1,-,N/A,,Overcast,100,2013-04-14 13:58:00
10:58 AM,59.0,43.2,56,30.03,10.0,East,5.8,-,N/A,,Overcast,100,2013-04-14 14:58:00
11:58 AM,60.8,44.4,55,30.05,10.0,SE,6.9,-,N/A,,Overcast,140,2013-04-14 15:58:00
12:56 PM,60.8,46.4,59,30.05,10.0,South,8.1,-,N/A,,Light Drizzle,170,2013-04-14 16:56:00
12:58 PM,60.8,46.4,59,30.05,10.0,South,6.9,-,N/A,,Light Drizzle,170,2013-04-14 16:58:00
1:58 PM,57.4,52.2,83,30.06,10.0,South,4.6,-,0.01,Rain,Light Rain,190,2013-04-14 17:58:00
2:58 PM,56.8,54.1,91,30.07,7.0,South,3.5,-,0.07,Rain,Light Rain,180,2013-04-14 18:58:00
3:13 PM,57.2,55.4,94,30.07,7.0,South,4.6,-,N/A,Rain,Light Rain,170,2013-04-14 19:13:00
3:28 PM,57.2,55.4,94,30.06,5.0,SE,6.9,-,N/A,Rain,Light Rain,140,2013-04-14 19:28:00
3:58 PM,57.2,54.9,92,30.02,6.0,SE,12.7,-,0.05,Rain,Light Rain,130,2013-04-14 19:58:00
4:15 PM,57.2,55.4,94,29.99,7.0,ESE,12.7,-,N/A,,Overcast,120,2013-04-14 20:15:00
4:58 PM,56.8,54.3,91,29.93,10.0,ESE,19.6,28.8,0.00,,Overcast,110,2013-04-14 20:58:00
5:24 PM,57.2,53.6,88,29.92,10.0,ESE,17.3,24.2,N/A,,Overcast,120,2013-04-14 21:24:00
5:34 PM,57.2,53.6,88,29.93,7.0,ESE,16.1,23.0,N/A,,Overcast,120,2013-04-14 21:34:00
5:58 PM,56.7,54.0,91,29.92,10.0,East,12.7,-,N/A,,Overcast,100,2013-04-14 21:58:00
6:33 PM,57.2,55.4,94,29.93,10.0,ESE,10.4,-,N/A,,Overcast,110,2013-04-14 22:33:00
6:58 PM,57.2,54.9,92,29.93,10.0,East,10.4,-,N/A,,Overcast,90,2013-04-14 22:58:00
7:48 PM,57.2,53.6,88,29.93,10.0,East,12.7,19.6,N/A,,Overcast,100,2013-04-14 23:48:00
7:58 PM,56.7,53.1,88,29.93,10.0,East,12.7,19.6,N/A,,Overcast,100,2013-04-14 23:58:00
8:23 PM,57.2,53.6,88,29.94,10.0,East,6.9,-,N/A,,Overcast,100,2013-04-15 00:23:00
8:43 PM,57.2,53.6,88,29.94,10.0,East,8.1,-,N/A,,Overcast,100,2013-04-15 00:43:00
8:58 PM,56.7,53.4,89,29.95,10.0,East,8.1,-,N/A,,Overcast,90,2013-04-15 00:58:00
9:38 PM,57.2,53.6,88,29.95,10.0,East,8.1,-,N/A,,Overcast,90,2013-04-15 01:38:00
9:58 PM,56.7,53.6,89,29.96,10.0,East,10.4,-,N/A,,Overcast,100,2013-04-15 01:58:00
10:33 PM,57.2,53.6,88,29.95,10.0,East,10.4,-,N/A,,Overcast,100,2013-04-15 02:33:00
10:58 PM,56.8,53.8,89,29.95,10.0,East,5.8,-,N/A,,Overcast,100,2013-04-15 02:58:00
11:48 PM,57.2,53.6,88,29.95,9.0,East,10.4,-,N/A,,Overcast,100,2013-04-15 03:48:00
11:58 PM,56.3,54.7,94,29.96,7.0,East,8.1,-,N/A,,Overcast,100,2013-04-15 03:58:00